Home > Weather > Charleroi > Past weeks

Flag for Belgium Past Weather in Charleroi, Belgium — Yesterday and Last 2 Weeks

Now
64 °F

Clear.


Feels Like: 64 °F
Forecast: 61 / 74 °F
Wind: 2 mph from West

Location: Charleroi / Gosselies

Current Time: Jul 25, 2016 at 12:34:11 AM

Latest Report: Jul 24, 2016 at 11:50 PM


Visibility: 10 mi

Pressure: 30.12 "Hg

Humidity: 78%

Dew Point: 57 °F

Location of CharleroiLocation

Past Weather in Charleroi — Graph

°F

Charleroi Temperature Yesterday

Maximum temperature yesterday: 79 °F (at 5:20 PM)
Minimum temperature yesterday: 57 °F (at 6:20 AM)
Average temperature yesterday: 68 °F

High & Low Weather Summary for the Past Weeks

 TemperatureHumidityPressure
High90 °F (Jul 20, 1:50 PM)100% (Jul 23, 3:20 AM)30.33 "Hg (Jul 23, 3:20 AM)
Low48 °F (Jul 15, 4:20 AM)35% (Jul 19, 4:20 PM)29.80 "Hg (Jul 10, 7:50 PM)
Average67 °F71%30.08 "Hg
* Reported Jul 9 11:20 PM — Jul 24 11:20 PM, Charleroi, Weather by CustomWeather, © 2016

Note: Actual official high and low records may vary slightly from our data, if they occured in-between our weather recording intervals... More about our weather records

Advertising

Charleroi Weather History for the Previous 24 Hours

Scroll right to see more
 ConditionsComfort  
Time TempWeatherWind HumidityBarometerVisibility
11:20 PM
Sun, Jul 24
66 °FClear.2 mph73%30.12 "Hg10 mi
10:50 PM68 °FPassing clouds.3 mph69%30.12 "HgN/A
10:20 PM68 °FPassing clouds.5 mph69%30.15 "HgN/A
9:50 PM68 °FPassing clouds.5 mph69%30.12 "HgN/A
9:20 PM70 °FPassing clouds.5 mph64%30.12 "HgN/A
8:50 PM72 °FPassing clouds.6 mph57%30.12 "HgN/A
8:20 PM72 °FPassing clouds.7 mph57%30.12 "HgN/A
7:50 PM73 °FPassing clouds.7 mph53%30.12 "HgN/A
7:20 PM75 °FPassing clouds.8 mph50%30.12 "HgN/A
6:50 PM75 °FPassing clouds.9 mph50%30.09 "HgN/A
6:20 PM79 °FPassing clouds.8 mph48%30.09 "HgN/A
5:50 PM77 °FPassing clouds.8 mph54%30.12 "HgN/A
5:20 PM79 °FScattered clouds.7 mph51%30.12 "HgN/A
4:50 PM77 °FScattered clouds.10 mph51%30.12 "HgN/A
4:20 PM75 °FScattered clouds.5 mph54%30.12 "HgN/A
3:50 PM77 °FScattered clouds.5 mph54%30.12 "HgN/A
3:20 PM77 °FScattered clouds.7 mph54%30.12 "HgN/A
2:50 PM75 °FScattered clouds.7 mph57%30.12 "HgN/A
2:20 PM75 °FPassing clouds.6 mph57%30.15 "HgN/A
1:50 PM73 °FPassing clouds.5 mph61%30.15 "HgN/A
1:20 PM73 °FPassing clouds.2 mph57%30.15 "HgN/A
12:50 PM73 °FPassing clouds.6 mph61%30.15 "HgN/A
12:20 PM72 °FPassing clouds.5 mph61%30.15 "HgN/A
11:50 AM72 °FPassing clouds.6 mph61%30.15 "HgN/A
11:20 AM70 °FPassing clouds.6 mph69%30.15 "HgN/A
10:50 AM68 °FPassing clouds.5 mph73%30.15 "HgN/A
10:20 AM66 °FPassing clouds.3 mph78%30.15 "HgN/A
9:50 AM64 °FPassing clouds.5 mph83%30.15 "Hg4 mi
9:20 AM63 °FPassing clouds.5 mph88%30.15 "Hg4 mi
8:50 AM63 °FFog.3 mph88%30.15 "Hg2 mi
8:20 AM61 °FFog.3 mph88%30.15 "Hg2 mi
7:50 AM59 °FFog.3 mph94%30.15 "Hg2 mi
7:20 AM59 °FFog.3 mph94%30.15 "Hg2 mi
6:50 AM57 °FFog.2 mph100%30.15 "Hg2 mi
6:20 AM57 °FFog.3 mph100%30.15 "Hg2 mi
5:50 AM59 °FFog.5 mph94%30.15 "Hg2 mi
5:20 AM59 °FFog.2 mph94%30.15 "Hg2 mi
4:50 AM59 °FFog.3 mph94%30.15 "Hg2 mi
4:20 AM59 °FFog.3 mph94%30.15 "Hg2 mi
3:50 AM61 °FFog.2 mph94%30.15 "Hg2 mi
3:20 AM61 °FFog.3 mph94%30.15 "Hg2 mi
2:50 AM61 °FFog.2 mph94%30.15 "Hg2 mi
2:20 AM61 °FFog.3 mph94%30.15 "Hg2 mi
1:50 AM61 °FFog.5 mph94%30.15 "Hg2 mi
1:20 AM63 °FFog.5 mph94%30.15 "Hg2 mi
12:50 AM63 °FFog.6 mph94%30.15 "Hg2 mi
12:20 AM63 °FFog.3 mph94%30.15 "Hg2 mi
Weather by CustomWeather, © 2016

See weather overviewHow to use our weather pages